Location: Palomar Mountain Lodge
(33.3110°N, 116.8495°W)
Time: 02:24:21
(UTC-07:00)

USA 267 - Pass Details

Date: 19 May 2017
Orbit: 1100 x 1107 km, 123.0° (Epoch: 15 October)

Event Time Altitude Azimuth Distance (km) Brightness Sun altitude
Rises 21:38:20 0° 48° (NE) 3,926 6.1 -20.7°
Reaches altitude 10° 21:40:56 10° 54° (NE) 2,964 5.4 -21.1°
Maximum altitude 21:47:14 49° 128° (SE) 1,395 3.3 -22.0°
Drops below altitude 10° 21:53:29 10° 201° (SSW) 2,948 5.3 -22.9°
Sets 21:56:03 0° 207° (SSW) 3,902 6.0 -23.3°
